TimeCST,TemperatureF,Dew PointF,Humidity,Sea Level PressureIn,VisibilityMPH,Wind Direction,Wind SpeedMPH,Gust SpeedMPH,PrecipitationIn,Events,Conditions,WindDirDegrees,DateUTC
12:52 AM,7.0,1.9,80,30.19,10.0,NW,18.4,-,N/A,,Clear,310,2012-12-21 06:52:00
1:52 AM,7.0,1.9,80,30.20,10.0,NW,16.1,-,N/A,,Clear,310,2012-12-21 07:52:00
2:52 AM,6.1,1.0,80,30.23,10.0,NW,15.0,-,N/A,,Clear,310,2012-12-21 08:52:00
3:52 AM,5.0,1.0,84,30.24,10.0,NW,15.0,-,N/A,,Clear,310,2012-12-21 09:52:00
4:52 AM,5.0,1.0,84,30.27,10.0,NW,16.1,-,N/A,,Clear,310,2012-12-21 10:52:00
5:52 AM,3.9,-0.0,84,30.29,10.0,NW,13.8,-,N/A,,Clear,310,2012-12-21 11:52:00
6:52 AM,3.9,-0.9,80,30.31,10.0,NNW,9.2,-,N/A,,Clear,330,2012-12-21 12:52:00
7:52 AM,3.9,-0.0,84,30.32,10.0,NNW,9.2,-,N/A,,Clear,330,2012-12-21 13:52:00
8:52 AM,5.0,1.0,84,30.34,10.0,NW,10.4,-,N/A,,Clear,320,2012-12-21 14:52:00
9:52 AM,8.1,3.0,80,30.36,10.0,NW,10.4,-,N/A,,Clear,320,2012-12-21 15:52:00
10:52 AM,10.0,3.9,76,30.34,10.0,NNW,8.1,-,N/A,,Clear,330,2012-12-21 16:52:00
11:52 AM,12.9,5.0,71,30.33,10.0,NNW,6.9,-,N/A,,Clear,340,2012-12-21 17:52:00
12:52 PM,14.0,7.0,74,30.32,10.0,NW,8.1,-,N/A,,Clear,310,2012-12-21 18:52:00
1:52 PM,16.0,9.0,74,30.31,10.0,Calm,Calm,-,N/A,,Clear,0,2012-12-21 19:52:00
2:52 PM,17.1,9.0,71,30.31,10.0,Calm,Calm,-,N/A,,Clear,0,2012-12-21 20:52:00
4:52 PM,14.0,8.1,77,30.31,10.0,South,3.5,-,N/A,,Clear,170,2012-12-21 22:52:00
5:52 PM,10.9,6.1,81,30.31,10.0,SSE,4.6,-,N/A,,Clear,150,2012-12-21 23:52:00
6:52 PM,10.0,6.1,84,30.30,10.0,South,6.9,-,N/A,,Clear,180,2012-12-22 00:52:00
7:52 PM,12.0,8.1,84,30.28,10.0,SSE,3.5,-,N/A,,Clear,150,2012-12-22 01:52:00
8:52 PM,12.9,9.0,84,30.28,10.0,SSE,5.8,-,N/A,,Clear,160,2012-12-22 02:52:00
9:52 PM,10.9,8.1,88,30.27,10.0,South,9.2,-,N/A,,Clear,180,2012-12-22 03:52:00
10:52 PM,12.0,8.1,84,30.24,10.0,South,9.2,-,N/A,,Clear,190,2012-12-22 04:52:00
11:52 PM,10.0,6.1,84,30.23,9.0,South,9.2,-,N/A,,Clear,180,2012-12-22 05:52:00